Weather History for Manston, United Kingdom

Change the Weather History Date:

Friday, October 26, 2012

  Actual Average Record
Temperature  
Mean Temperature 46 °F -  
Max Temperature 48 °F - - ()
Min Temperature 44 °F - - ()
Degree Days  
Heating Degree Days 19    
Moisture  
Dew Point 41 °F    
Average Humidity 77    
Maximum Humidity 100    
Minimum Humidity 64    
Precipitation  
Precipitation 0.00 in - - ()
Sea Level Pressure  
Sea Level Pressure 29.85 in    
Wind  
Wind Speed 17 mph ()    
Max Wind Speed 26 mph    
Max Gust Speed 31 mph    
Visibility 6.3 miles    
Events Rain    
T = Trace of Precipitation, MM = Missing Value Source: Averaged Metar Reports

Daily Weather History Graph

Daily Weather History Graph

Search for Another Location

Airport:

Trip Planner

Search our weather history database for the weather conditions in past years. The results will help you decide how hot, cold, wet, or windy it might be!

Date:

Astronomy

Oct. 26, 2012 Rise Set
Actual Time 7:37 AM BST 5:38 PM BST
Civil Twilight 7:03 AM BST 6:12 PM BST
Nautical Twilight 6:24 AM BST 6:51 PM BST
Astronomical Twilight 5:45 AM BST 7:30 PM BST
Moon 4:02 PM BST (10/26) 4:00 AM BST (10/26)
Length of Visible Light 11h 09m
Length of Day
10h 00m
Waxing Gibbous, 89% of the Moon is Illuminated
Oct 26
Waxing Gibbous
Oct 29
Full
Nov 7
Last Quarter
Nov 13
New
Nov 20
First Quarter

Hourly Weather History & Observations

Time (BST) Temp. Windchill Dew Point Humidity Pressure Visibility Wind Dir Wind Speed Gust Speed Precip Events Conditions
6:20 AM 48.2 °F - 46.4 °F 93% 29.92 in 5.0 mi East 20.7 mph - N/A   Mostly Cloudy
6:50 AM 48 °F - 48 °F 100% 29.91 in 4 mi East 18.4 mph - - Rain Rain
6:50 AM 48.2 °F - 46.4 °F 93% 29.89 in 5.0 mi East 21.9 mph - N/A   Mostly Cloudy
7:20 AM 48.2 °F - 44.6 °F 87% 29.89 in 5.6 mi East 18.4 mph - N/A Rain Rain
7:50 AM 48.2 °F - 44.6 °F 87% 29.89 in 5.6 mi East 20.7 mph - N/A Rain Rain
8:20 AM 48.2 °F - 42.8 °F 82% 29.89 in 6.2 mi East 18.4 mph - N/A   Mostly Cloudy
8:50 AM 48.2 °F - 42.8 °F 82% 29.89 in 6.2 mi East 19.6 mph - N/A   Mostly Cloudy
9:20 AM 48.2 °F - 42.8 °F 82% 29.89 in 6.2 mi East 20.7 mph - N/A Rain Light Rain
9:50 AM 47 °F - 42 °F 78% 29.90 in 16 mi East 18.4 mph - - Rain Light Rain Showers
9:50 AM 48.2 °F - 41.0 °F 76% 29.89 in 6.2 mi East 19.6 mph - N/A Rain Light Rain
10:20 AM 48.2 °F - 42.8 °F 82% 29.89 in 6.2 mi East 17.3 mph - N/A Rain Light Rain
10:50 AM 48.2 °F - 42.8 °F 82% 29.89 in 6.2 mi East 17.3 mph - N/A Rain Light Rain
11:20 AM 48.2 °F - 41.0 °F 76% 29.89 in 6.2 mi East 20.7 mph - N/A Rain Light Rain
11:50 AM 48.2 °F - 39.2 °F 71% 29.86 in 6.2 mi East 19.6 mph 31.1 mph N/A Rain Light Rain
12:20 PM 48.2 °F - 37.4 °F 66% 29.86 in 6.2 mi East 16.1 mph - N/A   Mostly Cloudy
12:50 PM 48.2 °F - 37.4 °F 66% 29.86 in 6.2 mi ENE 16.1 mph - N/A   Mostly Cloudy
1:20 PM 48.2 °F - 37.4 °F 66% 29.83 in 6.2 mi ENE 16.1 mph - N/A   Mostly Cloudy
1:50 PM 48.2 °F - 37.4 °F 66% 29.83 in 6.2 mi ENE 17.3 mph - N/A Rain Light Rain
2:20 PM 46.4 °F 40.1 °F 37.4 °F 71% 29.83 in 6.2 mi ENE 15.0 mph - N/A   Mostly Cloudy
2:50 PM 46.4 °F 40.1 °F 37.4 °F 71% 29.83 in 6.2 mi ENE 15.0 mph - N/A   Mostly Cloudy
3:20 PM 46.4 °F 40.4 °F 37.4 °F 71% 29.80 in 6.2 mi ENE 13.8 mph - N/A   Mostly Cloudy
3:50 PM 46 °F - 38 °F 64% 29.81 in 5 mi NE 12.7 mph - - Rain Light Rain
3:50 PM 46.4 °F 39.8 °F 37.4 °F 71% 29.80 in 6.2 mi NE 16.1 mph - N/A   Mostly Cloudy
4:20 PM 44.6 °F 37.2 °F 39.2 °F 81% 29.80 in 6.2 mi NE 17.3 mph - N/A   Mostly Cloudy
4:50 PM 46.4 °F 40.1 °F 37.4 °F 71% 29.80 in 6.2 mi NNE 15.0 mph - N/A   Scattered Clouds
5:20 PM 46.4 °F 39.8 °F 39.2 °F 76% 29.77 in 6.2 mi NE 16.1 mph - N/A   Scattered Clouds
5:50 PM 46.4 °F 40.1 °F 37.4 °F 71% 29.80 in 6.2 mi NNE 15.0 mph - N/A   Scattered Clouds
9:50 PM 44 °F - 38 °F 73% 29.79 in 22 mi North 26.5 mph - -   Mostly Cloudy